Location: *
(51.5000°N, 0.1100°W)
Time: 16:30:22
(UTC+00:00)

Cosmos 2228 Rocket - Pass Details

Date: 25 May 2024
Orbit: 616 x 648 km, 82.5° (Epoch: 16 June)

Event Time Altitude Azimuth Distance (km) Brightness Sun altitude
Exits shadow 00:47:56 29° 214° (SW) 1,152 3.9 -16.6°
Maximum altitude 00:50:02 60° 283° (WNW) 728 3.4 -16.6°
Drops below altitude 10° 00:54:31 10° 5° (N) 2,042 7.0 -16.4°
Sets 00:56:49 0° 9° (N) 2,961 8.3 -16.3°
